Location: Gisborne
(38.6530°S, 178.0040°E)
Time: 14:27:43
(UTC+12:00)

Cosmos 1733 Rocket - Pass Details

Date: 24 January 2019
Orbit: 602 x 629 km, 82.5° (Epoch: 22 April)

Event Time Altitude Azimuth Distance (km) Brightness Sun altitude
Rises 22:51:48 0° 178° (S) 2,922 7.3 -22.5°
Reaches altitude 10° 22:54:14 10° 168° (SSE) 2,003 6.2 -22.8°
Enters shadow 22:57:44 32° 118° (ESE) 1,067 4.1 -23.2°
